Flag for Germany Weather past 2 weeks in Bad Neuenahr-Ahrweiler, Rhineland-Palatinate, Germany

Now
47 °F

Partly sunny.


Feels Like: 42 °F
Forecast: 37 / 47 °F
Wind: 13 mph from West

Location: Bonn-Hangelar

Current Time: Mar 1, 2015 at 12:26:28 PM

Latest Report: Mar 1, 2015 at 12:00 PM


Visibility: 25 mi

Pressure: 29.66 "Hg

Humidity: 68%

Dew point: 37 °F

Location of Bad Neuenahr-AhrweilerLocation

Historic Weather in Bad Neuenahr-Ahrweiler — Graph

°F

Bad Neuenahr-Ahrweiler temperature yesterday

Maximum temperature yesterday: 45 °F (at 4:00 PM)
Minimum temperature yesterday: 31 °F (at 1:00 AM)
Average temperature yesterday: 38 °F

Past Weeks' High & Low Weather Summary

 TemperatureHumidityPressure
High48 °F (Feb 14, 2:00 PM)100% (Feb 17, 4:00 AM)30.78 "Hg (Feb 17, 4:00 AM)
Low29 °F (Feb 17, 2:00 AM)54% (Feb 28, 5:00 PM)29.38 "Hg (Feb 21, 3:00 AM)
Average38 °F86%29.98 "Hg
* Reported Feb 14 11:00 AM — Mar 1 11:00 AM, Bad Neuenahr-Ahrweiler, Weather by CustomWeather, © 2015

Note: Actual official high and low records may vary slightly from our data, if they occured in-between our weather recording intervals... More about our weather records

Advertising

Bad Neuenahr-Ahrweiler weather history for previous 24 hours

 ConditionsComfort  
Time TempWeatherWind HumidityBarometerVisibility
11:00 AM
Sun, Mar 1
48 °FPartly sunny.14 mph69%29.65 "Hg22 mi
10:00 AM47 °FOvercast.10 mph83%29.64 "Hg28 mi
9:00 AM45 °FOvercast.12 mph90%29.63 "Hg28 mi
8:00 AM44 °FLow clouds.13 mph91%29.60 "Hg25 mi
7:00 AM43 °FRain. Low clouds.13 mph93%29.59 "Hg6 mi
6:00 AM43 °FOvercast.14 mph88%29.60 "Hg31 mi
5:00 AM41 °FLow clouds.14 mph90%29.60 "Hg12 mi
4:00 AM40 °FLight rain. Low clouds.13 mph88%29.61 "Hg5 mi
3:00 AM40 °FLight rain. Low clouds.13 mph80%29.66 "Hg18 mi
2:00 AM42 °FLight rain. Overcast.13 mph70%29.69 "Hg34 mi
1:00 AM42 °FOvercast.12 mph63%29.75 "Hg34 mi
12:00 AM42 °FOvercast.15 mph59%29.75 "Hg34 mi
11:00 PM
Sat, Feb 28
42 °FOvercast.14 mph59%29.80 "Hg31 mi
10:00 PM41 °FOvercast.12 mph57%29.83 "Hg34 mi
9:00 PM41 °FPassing clouds.12 mph59%29.88 "Hg25 mi
8:00 PMN/APassing clouds.8 mphN/AN/A3 mi
7:00 PM41 °FPassing clouds.8 mph59%29.93 "Hg25 mi
6:00 PM43 °FScattered clouds.7 mph55%29.94 "Hg25 mi
5:00 PM44 °FPassing clouds.10 mph54%29.96 "Hg25 mi
4:00 PM45 °FPassing clouds.9 mph56%29.99 "Hg25 mi
3:00 PM45 °FPassing clouds.8 mph57%30.02 "Hg25 mi
2:00 PM44 °FOvercast.8 mph62%30.05 "Hg22 mi
1:00 PM42 °FOvercast.9 mph67%30.08 "Hg22 mi
12:00 PM40 °FOvercast.7 mph71%30.09 "Hg19 mi
Weather by CustomWeather, © 2015

See weather overviewHow to use our weather pages